TimeEDT,TemperatureF,Dew PointF,Humidity,Sea Level PressureIn,VisibilityMPH,Wind Direction,Wind SpeedMPH,Gust SpeedMPH,PrecipitationIn,Events,Conditions,WindDirDegrees,DateUTC
12:54 AM,70.0,66.9,90,29.81,9.0,Calm,Calm,-,N/A,,Scattered Clouds,0,2013-09-01 04:54:00
1:54 AM,66.9,64.9,93,29.81,7.0,North,5.8,-,N/A,,Partly Cloudy,360,2013-09-01 05:54:00
2:54 AM,66.9,64.9,93,29.81,6.0,NNE,5.8,-,N/A,,Scattered Clouds,30,2013-09-01 06:54:00
3:41 AM,66.2,64.4,94,29.82,4.0,NNE,6.9,-,N/A,,Mostly Cloudy,30,2013-09-01 07:41:00
3:44 AM,66.2,64.4,94,29.82,2.0,NNE,8.1,-,N/A,,Mostly Cloudy,30,2013-09-01 07:44:00
3:54 AM,66.0,64.9,96,29.81,2.0,ENE,4.6,-,N/A,,Overcast,70,2013-09-01 07:54:00
3:59 AM,66.2,64.4,94,29.82,0.5,ENE,6.9,-,N/A,Fog,Fog,60,2013-09-01 07:59:00
4:17 AM,66.2,64.4,94,29.84,0.8,NE,4.6,-,N/A,,Overcast,50,2013-09-01 08:17:00
4:30 AM,66.2,64.4,94,29.83,3.0,East,4.6,-,N/A,,Overcast,80,2013-09-01 08:30:00
4:54 AM,66.0,64.9,96,29.82,3.0,ENE,6.9,-,N/A,,Overcast,70,2013-09-01 08:54:00
5:05 AM,66.2,64.4,94,29.83,5.0,ENE,8.1,-,N/A,,Overcast,60,2013-09-01 09:05:00
5:31 AM,66.2,64.4,94,29.84,6.0,ENE,8.1,-,N/A,,Overcast,70,2013-09-01 09:31:00
5:45 AM,66.2,64.4,94,29.84,5.0,East,9.2,-,N/A,,Overcast,80,2013-09-01 09:45:00
5:54 AM,66.9,66.0,97,29.83,5.0,East,10.4,-,N/A,,Overcast,90,2013-09-01 09:54:00
6:26 AM,68.0,66.2,94,29.84,6.0,East,9.2,-,N/A,,Overcast,100,2013-09-01 10:26:00
6:54 AM,69.1,66.0,90,29.83,7.0,ESE,8.1,-,N/A,,Mostly Cloudy,110,2013-09-01 10:54:00
7:54 AM,69.1,66.0,90,29.83,9.0,East,4.6,-,N/A,,Mostly Cloudy,80,2013-09-01 11:54:00
8:54 AM,72.0,66.0,81,29.83,10.0,East,6.9,-,N/A,,Scattered Clouds,100,2013-09-01 12:54:00
9:54 AM,73.9,66.0,76,29.83,10.0,East,4.6,-,N/A,,Scattered Clouds,90,2013-09-01 13:54:00
10:52 AM,77.0,66.2,69,29.83,10.0,Calm,Calm,-,N/A,,Mostly Cloudy,0,2013-09-01 14:52:00
10:54 AM,78.1,68.0,71,29.82,10.0,Variable,3.5,-,N/A,,Mostly Cloudy,0,2013-09-01 14:54:00
11:54 AM,79.0,68.0,69,29.81,10.0,SE,4.6,-,N/A,,Mostly Cloudy,130,2013-09-01 15:54:00
12:54 PM,81.0,68.0,65,29.79,10.0,Variable,4.6,-,N/A,,Mostly Cloudy,0,2013-09-01 16:54:00
1:03 PM,82.4,68.0,62,29.81,10.0,SE,5.8,-,N/A,,Mostly Cloudy,130,2013-09-01 17:03:00
1:54 PM,81.0,68.0,65,29.79,10.0,NE,3.5,-,N/A,,Mostly Cloudy,40,2013-09-01 17:54:00
2:54 PM,82.9,66.0,56,29.76,10.0,Calm,Calm,-,N/A,,Mostly Cloudy,0,2013-09-01 18:54:00
3:54 PM,81.0,68.0,65,29.75,10.0,WNW,6.9,-,0.00,Rain,Light Rain,300,2013-09-01 19:54:00
4:21 PM,80.6,68.0,65,29.76,10.0,WNW,8.1,-,0.00,Thunderstorm,Thunderstorm,300,2013-09-01 20:21:00
4:54 PM,79.0,70.0,74,29.76,10.0,NNW,8.1,-,0.00,,Mostly Cloudy,340,2013-09-01 20:54:00
5:54 PM,75.9,70.0,82,29.76,10.0,NE,8.1,-,0.00,Rain,Light Rain,40,2013-09-01 21:54:00
6:31 PM,75.2,71.6,89,29.77,10.0,NNE,3.5,-,0.00,,Overcast,30,2013-09-01 22:31:00
6:54 PM,75.0,71.1,87,29.77,10.0,NW,3.5,-,0.00,Rain,Light Rain,320,2013-09-01 22:54:00
7:23 PM,75.2,71.6,89,29.77,9.0,NW,3.5,-,0.00,Rain,Light Rain,310,2013-09-01 23:23:00
7:54 PM,75.0,68.0,79,29.77,10.0,SW,4.6,-,0.00,,Mostly Cloudy,220,2013-09-01 23:54:00
8:26 PM,73.4,69.8,88,29.78,10.0,SSW,5.8,-,N/A,Thunderstorm,Thunderstorm,210,2013-09-02 00:26:00
8:54 PM,73.0,70.0,90,29.77,8.0,SW,3.5,-,0.01,Rain,Light Rain,230,2013-09-02 00:54:00
9:47 PM,73.4,69.8,88,29.79,7.0,Calm,Calm,-,0.00,,Mostly Cloudy,0,2013-09-02 01:47:00
9:54 PM,73.0,70.0,90,29.78,7.0,Calm,Calm,-,0.00,,Mostly Cloudy,0,2013-09-02 01:54:00
10:20 PM,71.6,69.8,94,29.78,6.0,South,5.8,-,N/A,,Mostly Cloudy,190,2013-09-02 02:20:00
10:54 PM,71.1,69.1,93,29.77,6.0,SSW,3.5,-,N/A,,Scattered Clouds,210,2013-09-02 02:54:00
11:54 PM,71.1,68.0,90,29.75,9.0,SSW,5.8,-,N/A,,Scattered Clouds,200,2013-09-02 03:54:00